Theta_e
289 287 287 287 286 286 286 287 286 286 286 286 286 286 286 286 286 286 286 285 286 285 285 285 285 285 285 285 284 284 285 284 284 284 284 283 283 283 283 283 283 283 283 283 282 282 282 282 282 282 282 282 282 282 282 282 282 283 283 283 282 282
289 288 287 287 287 287 287 287 287 287 286 286 286 286 286 286 286 286 286 286 286 285 285 285 285 285 285 284 284 284 284 284 284 284 284 283 283 283 283 283 283 283 283 282 282 282 282 282 282 282 282 282 282 282 283 283 283 283 283 283 282 282
290 288 287 287 287 287 287 287 287 287 286 286 286 286 286 286 286 286 286 286 286 285 285 285 285 285 284 284 284 284 284 284 284 284 283 283 283 283 283 282 282 282 282 282 282 282 282 282 282 282 282 282 282 282 282 282 282 282 282 282 282 282
290 289 288 288 288 287 287 287 287 287 286 286 286 286 286 286 286 286 286 286 286 286 285 285 285 285 285 284 284 284 284 284 283 283 283 283 282 282 282 282 282 282 281 281 281 281 281 281 281 281 281 281 281 281 281 281 281 280 280 281 281 281
290 290 289 289 289 288 287 287 286 286 286 286 286 286 286 286 286 286 286 286 286 286 286 286 286 285 285 285 285 284 284 283 283 283 283 282 282 282 282 282 281 281 281 281 281 280 280 280 280 280 280 280 279 280 280 279 279 279 279 279 279 279
289 290 290 289 289 288 288 287 286 286 286 286 286 286 286 286 286 286 286 286 286 286 285 285 285 285 285 285 285 284 284 283 283 283 282 282 282 282 282 281 281 281 280 280 280 280 279 279 279 279 279 278 278 278 278 278 278 277 277 277 277 277
289 290 290 290 289 289 288 287 287 287 287 286 286 286 286 286 286 286 286 286 286 285 285 285 285 285 285 285 285 285 285 284 284 283 282 282 282 282 281 281 280 280 280 279 279 279 278 278 278 278 277 277 277 277 276 276 276 277 277 277 277 277
289 289 290 290 290 289 288 287 287 287 287 287 287 287 286 286 286 286 286 286 285 285 285 285 285 285 285 285 285 285 285 285 284 283 282 282 282 282 281 281 281 280 280 279 279 278 278 278 277 277 277 276 276 276 276 276 276 276 276 276 276 276
289 289 289 290 290 290 289 288 287 287 287 287 287 287 287 286 286 286 286 286 285 285 285 285 285 285 285 285 285 285 285 285 284 283 282 282 282 282 282 281 281 280 280 279 279 279 278 278 277 276 276 276 276 276 275 275 275 275 275 275 275 275
288 288 288 289 290 290 290 288 288 288 288 288 287 287 287 286 286 286 286 286 285 285 285 285 285 285 285 285 285 285 285 285 284 283 282 282 282 281 281 281 280 280 280 279 279 278 278 277 277 276 276 275 275 275 275 274 275 274 274 274 274 274
288 287 288 288 289 289 289 289 288 288 288 288 287 287 287 286 286 286 286 286 286 285 285 284 284 284 284 285 285 285 285 285 284 283 282 281 281 281 280 280 280 279 279 279 278 278 277 277 276 275 275 274 274 274 274 274 274 274 274 274 273 273
287 287 288 288 288 288 289 289 289 289 288 288 288 287 287 287 287 286 286 286 286 285 285 284 284 284 285 285 285 285 285 285 284 282 282 281 281 280 280 279 279 279 278 278 278 277 277 276 275 274 274 273 273 273 273 273 273 273 273 273 272 272
287 287 287 287 288 288 288 289 289 289 289 288 288 288 287 287 287 287 287 286 286 285 284 284 284 284 285 285 285 285 284 284 283 282 282 281 280 280 280 279 279 278 278 277 277 277 276 275 275 274 273 273 273 272 273 273 273 272 272 272 272 272
286 286 287 287 287 288 288 289 289 289 289 289 289 289 288 287 287 287 287 286 286 285 284 284 284 284 285 285 285 284 284 284 283 282 281 281 280 280 279 279 278 278 277 277 277 276 276 275 274 273 273 273 272 272 273 273 272 272 272 272 271 271
286 286 287 287 287 288 289 289 289 289 290 290 289 289 288 288 287 287 287 286 286 285 284 284 284 284 284 284 284 284 284 283 282 281 281 280 280 279 279 278 278 277 277 277 276 276 275 275 274 273 273 272 271 271 272 272 272 272 271 271 271 270
286 286 287 288 288 289 289 289 289 290 290 289 289 288 288 287 287 287 286 286 285 284 284 284 284 284 284 284 284 283 283 282 281 280 280 280 279 279 278 278 278 277 277 276 276 275 275 274 273 273 272 271 270 271 272 272 271 271 270 270 269 269
287 287 287 288 289 289 289 289 289 289 289 288 288 287 287 287 286 286 286 285 284 284 284 284 283 283 283 283 283 282 281 280 280 280 279 279 278 278 277 277 277 276 276 275 275 275 274 273 272 272 272 271 270 270 271 271 269 269 269 269 269 269
290 290 290 291 290 290 290 290 289 289 288 288 287 286 286 286 286 286 285 284 284 283 283 283 283 283 283 282 281 280 280 279 279 279 278 278 277 276 276 276 275 275 275 274 274 274 273 273 272 272 271 270 269 269 270 269 268 268 268 268 268 268
292 291 292 291 291 291 291 290 290 289 288 287 286 286 286 285 285 285 284 284 283 283 282 282 282 282 282 280 279 279 279 279 278 278 277 276 276 275 275 275 275 274 274 273 273 272 272 272 272 271 271 269 269 269 269 268 268 268 268 268 268 268
290 290 290 290 290 290 290 290 289 288 287 287 286 285 285 285 285 284 283 283 282 282 282 282 282 281 280 279 279 278 278 278 278 277 276 275 275 275 274 274 274 274 273 273 272 271 271 272 271 271 270 269 269 268 268 268 268 268 268 268 268 269
290 289 289 289 289 289 289 289 289 288 287 286 286 285 284 284 284 283 282 282 281 282 282 281 280 279 278 278 278 278 278 277 277 276 275 274 274 274 274 274 274 274 273 272 272 271 270 271 271 271 270 270 268 268 269 269 268 268 269 269 269 269
289 289 289 289 289 289 289 289 288 287 287 286 285 284 284 284 283 282 282 281 281 281 281 280 279 278 278 278 278 277 277 276 276 275 274 274 273 273 273 273 272 273 273 272 272 271 270 270 271 270 270 269 268 268 269 269 269 269 269 269 269 269
289 289 289 289 289 289 288 288 287 287 286 285 284 284 284 283 282 281 281 281 281 280 279 278 278 278 278 277 277 276 276 275 275 274 273 273 273 272 272 272 271 272 272 272 271 270 269 269 270 270 269 268 268 268 269 269 269 269 269 270 270 271
288 288 289 289 289 288 288 287 287 286 285 285 284 285 284 282 281 281 280 280 279 278 278 277 277 277 277 277 276 276 275 275 274 273 272 272 272 271 271 271 271 271 271 271 270 269 269 268 268 268 268 268 267 268 269 269 270 270 271 271 272 271
288 288 289 288 288 288 287 286 286 285 285 284 284 283 282 281 280 280 279 279 278 277 277 277 277 277 276 276 275 275 274 274 273 272 271 271 271 270 270 270 269 269 269 269 269 268 267 267 267 267 267 267 267 268 269 270 270 271 271 272 272 272
287 288 288 287 287 286 286 285 285 284 284 284 283 281 280 280 279 279 278 278 277 277 277 276 276 276 275 274 274 274 273 272 272 271 271 270 270 269 269 268 267 266 265 266 267 267 266 266 266 266 267 267 267 268 269 270 271 271 271 272 272 272
287 286 286 286 285 285 284 284 284 283 283 282 281 280 279 279 278 278 277 277 277 276 276 275 275 274 274 273 273 272 272 271 271 270 270 269 269 268 267 266 265 264 263 263 264 265 265 265 266 266 267 267 268 269 269 270 270 271 271 272 272 272
285 284 284 284 284 283 283 283 282 282 282 281 280 279 278 278 277 277 276 276 276 275 275 274 274 273 273 272 271 271 270 270 270 269 269 268 268 267 265 264 263 262 262 262 263 264 265 265 266 267 267 268 268 268 269 270 270 271 271 272 272 272
283 282 283 283 283 283 282 282 281 281 280 279 278 278 277 276 276 276 275 275 274 274 273 273 273 272 271 271 270 270 270 269 269 268 267 267 267 265 264 263 262 262 262 262 263 264 266 266 267 268 268 268 269 269 270 271 271 272 272 272 272 272
282 282 282 282 283 282 282 281 280 279 278 278 277 276 276 275 275 275 274 274 273 273 273 272 271 271 270 270 269 269 269 269 268 268 267 267 266 264 263 263 262 262 263 263 264 265 267 267 268 268 269 269 270 270 271 272 272 272 272 272 272 273
282 282 282 282 283 282 281 280 279 278 277 276 276 275 275 275 274 273 273 273 273 272 271 270 270 269 269 269 269 269 268 268 268 267 267 267 266 265 264 264 264 264 265 266 266 267 268 268 269 269 270 270 271 271 271 272 272 272 272 273 273 273
283 282 282 282 282 281 280 279 277 276 276 275 275 275 274 273 273 272 272 272 272 271 270 269 268 268 268 268 268 268 268 268 267 267 266 265 265 265 264 265 266 266 267 268 268 269 269 269 269 269 270 270 270 271 271 272 272 272 272 272 271 270
281 280 280 281 280 279 278 277 276 275 275 274 274 274 273 272 271 271 272 272 271 270 268 268 267 267 267 267 267 267 266 266 267 268 267 266 265 264 265 266 267 267 268 268 269 269 269 268 269 269 269 270 270 271 271 271 271 271 270 269 269 267
279 279 279 279 278 277 277 276 275 274 274 273 273 273 272 271 271 271 271 271 269 268 267 267 266 266 266 266 266 266 265 264 264 266 268 268 267 265 265 265 266 266 267 268 268 268 267 267 268 268 269 269 270 270 270 269 269 268 267 267 266 264
280 279 278 277 277 277 276 275 274 274 273 273 272 272 271 271 271 271 270 269 268 267 266 266 265 265 265 265 265 265 264 262 261 262 263 266 268 268 267 266 265 265 265 266 266 266 266 267 267 268 269 269 269 269 268 267 266 265 265 264 263 262
277 276 276 276 276 275 275 274 273 273 272 272 271 271 271 270 270 270 269 268 267 266 265 265 265 265 264 264 264 263 262 262 261 260 260 260 263 265 267 268 267 265 263 263 264 265 265 266 267 267 268 269 268 267 266 265 265 264 264 263 261 261
275 275 275 275 274 274 273 273 273 271 271 270 270 270 270 269 269 268 267 267 266 265 265 265 264 264 264 264 263 263 262 261 261 260 259 259 259 259 261 264 267 267 265 262 263 264 264 265 266 267 268 267 266 266 265 263 263 263 262 261 261 261
274 273 273 273 272 272 272 272 271 270 269 269 269 269 269 268 268 267 266 266 265 264 264 264 264 264 263 263 263 262 262 261 260 259 259 259 259 258 258 260 264 266 266 265 263 263 264 264 265 267 267 266 264 264 263 261 261 261 260 261 261 261
Wind_Speed
15 16 16 15 16 16 16 17 16 17 16 16 17 17 17 16 15 15 14 13 13 13 12 12 12 11 11 10 9 8 8 8 9 9 9 10 11 12 13 14 16 17 18 19 20 21 22 22 23 24 24 24 25 25 26 26 26 27 27 26 26 25
17 18 18 17 17 17 16 17 16 16 16 15 15 15 15 14 13 12 12 12 12 11 11 10 10 9 9 8 7 6 6 6 6 7 8 8 10 12 13 14 16 17 18 20 21 21 22 23 23 24 24 24 24 25 25 25 26 26 27 28 28 28
17 19 19 17 16 16 16 16 16 15 15 14 14 13 13 12 11 11 11 11 10 9 10 9 9 9 8 7 6 5 6 6 6 7 8 10 11 13 15 17 18 20 21 21 22 23 23 24 24 25 25 25 26 26 25 26 26 26 27 27 28 28
16 19 19 18 18 17 17 16 16 15 15 14 13 12 12 11 10 10 10 10 9 9 9 9 8 8 7 6 5 5 5 6 7 8 10 11 13 15 17 19 20 21 22 23 23 24 24 25 25 25 26 26 27 27 27 26 27 27 28 29 29 29
16 18 20 20 20 20 19 17 17 16 15 14 13 12 11 11 10 11 10 9 9 7 7 6 6 5 5 6 6 6 6 7 8 9 11 12 14 16 18 20 22 23 23 24 24 24 24 25 25 25 25 26 26 27 27 27 27 27 28 29 30 30
15 18 20 21 21 21 20 19 18 17 15 14 13 13 12 12 12 12 11 9 8 7 6 4 3 3 3 4 5 6 8 9 10 11 13 14 16 18 20 22 23 24 24 25 25 25 24 24 25 25 25 24 24 25 26 27 27 27 27 28 28 29
15 18 20 20 21 21 21 21 20 19 17 16 15 14 14 14 14 13 12 10 9 8 6 5 3 1 1 2 4 7 9 11 13 14 15 17 19 21 23 24 25 25 26 26 25 25 24 24 24 25 24 24 24 24 25 26 26 26 27 27 27 27
15 18 19 20 21 22 23 23 22 21 20 18 17 16 16 16 16 15 14 13 11 10 8 7 6 5 4 4 6 8 10 13 15 16 17 19 20 22 24 25 26 26 27 27 26 26 25 25 25 25 24 25 25 26 26 26 26 26 27 27 27 27
14 17 18 20 22 24 24 25 24 23 22 21 20 19 19 18 18 17 16 15 14 13 12 10 9 7 6 6 7 9 11 13 16 17 18 19 21 22 24 26 27 27 27 27 27 26 26 26 26 25 25 26 26 27 27 27 28 28 28 28 29 29
12 15 18 21 22 24 25 26 26 25 24 23 22 22 21 21 21 20 19 18 17 17 15 13 11 10 8 7 8 9 12 14 17 18 19 20 22 23 25 26 27 28 28 28 27 27 27 27 26 25 26 26 27 27 28 28 29 30 31 32 32 31
10 14 18 20 21 23 24 25 26 26 26 26 24 24 24 23 22 22 21 21 20 20 18 16 14 12 10 9 9 11 14 16 18 19 21 22 23 25 26 26 27 28 28 28 28 28 27 27 26 25 25 25 26 27 28 28 28 29 31 32 33 32
11 15 18 20 23 24 25 26 27 28 29 28 27 26 25 25 24 23 24 23 23 22 20 18 15 13 11 10 11 13 15 17 19 21 22 24 25 26 27 28 28 29 29 29 29 29 28 27 26 25 24 24 24 25 26 27 27 27 27 28 30 31
11 15 17 20 24 25 25 27 28 29 30 29 29 28 27 26 26 26 26 25 24 23 22 19 16 14 12 11 12 14 16 18 20 22 24 25 26 27 28 29 29 29 29 30 30 30 29 28 27 26 26 24 22 22 23 24 24 24 22 22 25 27
10 14 17 20 23 24 26 27 27 28 30 31 31 30 29 29 29 29 29 27 25 24 22 19 17 14 12 12 13 14 16 19 21 22 24 25 27 28 29 29 30 30 30 30 30 30 30 30 29 27 27 25 22 20 20 20 21 22 20 20 21 23
12 16 19 20 22 24 26 27 27 28 30 31 31 30 30 30 30 30 30 28 26 24 22 19 16 14 13 13 14 15 17 20 21 22 24 26 27 28 29 29 30 30 30 30 31 31 31 31 30 28 26 25 23 20 20 20 20 21 21 21 21 22
13 16 18 19 21 22 23 25 27 28 29 29 29 29 29 29 29 28 27 26 26 24 21 19 16 15 14 14 15 17 18 20 21 22 24 25 27 28 29 29 30 30 30 30 30 31 32 31 30 28 26 24 22 20 20 20 21 21 22 21 21 21
12 13 14 15 17 18 19 22 24 26 27 27 27 27 27 27 26 26 25 25 25 23 21 18 16 15 14 14 16 17 18 19 21 22 24 25 26 27 28 28 29 29 29 30 30 31 32 31 29 27 26 24 22 21 20 21 21 21 22 22 20 19
11 10 11 11 12 15 17 19 21 24 26 26 25 25 24 24 24 24 25 25 24 22 20 17 16 14 14 15 17 18 18 19 21 22 24 25 25 26 27 27 28 29 29 29 30 31 32 32 29 27 26 24 22 21 21 21 21 21 22 22 21 20
8 8 9 9 9 11 12 14 17 20 22 23 22 22 22 22 23 24 25 25 23 21 19 16 15 15 15 16 17 18 19 20 21 22 23 25 26 26 27 28 28 29 29 30 30 30 32 32 29 26 26 24 22 22 22 22 23 23 23 23 23 22
10 9 9 9 8 8 9 10 13 15 17 19 20 20 20 21 23 24 24 24 21 19 17 15 15 15 15 16 17 18 19 20 21 22 23 24 26 27 27 28 30 30 30 30 30 30 31 32 29 26 25 24 21 20 22 24 26 27 27 26 26 25
12 11 11 11 11 11 11 12 12 13 15 17 17 18 20 22 23 24 23 21 19 17 15 15 14 15 15 17 18 19 20 21 22 22 23 24 25 27 28 28 30 31 31 30 30 29 29 31 30 26 25 24 21 20 22 25 27 29 29 27 28 28
14 14 15 14 14 14 14 14 14 14 16 17 17 19 21 23 23 22 21 19 17 16 15 14 14 15 16 17 19 19 20 21 22 23 23 24 25 26 28 28 29 31 32 31 30 30 28 29 29 27 25 24 21 20 22 25 27 29 30 30 31 32
17 18 18 17 15 15 16 15 15 16 17 18 19 22 23 22 22 21 19 18 16 15 14 14 14 16 17 17 19 20 20 20 21 23 23 24 25 26 27 28 29 31 33 32 30 30 28 27 27 27 26 24 23 22 22 24 27 28 31 33 32 31
18 20 19 18 17 17 17 16 17 18 19 20 22 23 22 22 21 20 19 17 15 14 13 14 15 16 17 17 18 20 21 20 21 21 22 23 25 26 27 28 28 30 33 32 31 30 28 26 25 26 27 26 24 23 22 24 26 27 30 33 34 33
20 22 21 20 20 19 18 18 19 19 20 22 23 22 21 21 21 19 17 15 14 14 14 15 16 16 16 17 18 20 21 21 20 21 21 22 24 26 27 28 28 29 31 33 32 30 28 27 25 26 27 27 25 23 23 24 26 27 29 33 36 36
22 23 23 22 21 20 20 21 20 21 22 23 22 21 21 21 19 17 16 15 14 14 15 16 16 16 16 17 18 19 20 20 20 21 21 21 22 25 27 28 27 27 29 32 33 31 29 27 27 27 28 27 25 24 25 26 27 28 29 32 35 36
24 23 22 22 21 21 22 22 22 22 23 22 21 21 21 19 18 16 15 14 14 15 15 16 15 15 16 16 17 19 19 19 20 21 21 21 22 24 26 27 27 26 27 29 31 32 30 27 26 28 29 27 25 25 27 27 27 28 29 31 34 36
22 21 22 22 22 22 22 22 22 23 23 21 21 21 20 18 17 16 15 14 15 15 15 16 15 15 16 16 16 17 18 19 20 21 22 21 22 23 25 26 26 26 26 27 28 29 29 27 27 29 30 28 28 29 29 29 29 29 29 31 33 34
21 22 23 24 24 24 23 23 23 22 21 20 20 20 18 17 16 15 15 15 14 14 15 16 16 15 15 15 15 16 17 18 19 20 21 22 22 23 24 24 25 25 25 26 26 27 28 29 29 29 29 29 30 31 30 30 30 30 30 31 32 34
24 25 25 26 26 25 24 23 23 22 21 20 20 19 17 16 16 15 15 15 14 15 16 16 16 16 15 15 15 16 17 17 18 20 21 21 21 23 24 24 25 24 24 25 28 30 32 31 29 27 28 29 30 31 31 31 31 31 31 31 33 33
25 27 28 28 27 25 25 24 23 22 22 21 20 18 17 16 16 15 15 15 15 16 16 16 15 15 16 16 17 17 17 17 17 19 22 21 20 21 23 25 26 26 26 27 28 29 31 30 28 27 28 29 29 30 31 31 31 32 32 32 32 32
26 27 28 27 26 25 25 25 24 23 22 21 20 18 17 16 16 15 15 16 16 16 16 15 15 15 16 17 17 18 19 18 17 17 20 22 21 19 20 23 26 27 27 28 29 27 26 28 29 28 27 27 28 28 28 29 30 31 31 31 30 29
25 26 27 27 26 25 25 25 25 24 23 21 19 18 17 16 16 16 16 17 16 16 15 15 15 15 15 16 17 18 20 21 20 17 16 18 18 18 17 20 23 24 24 24 26 25 23 24 25 26 26 26 27 27 27 27 27 27 28 28 26 23
26 27 28 27 25 24 24 25 25 24 22 20 19 18 17 16 17 17 17 17 16 15 15 15 15 15 15 16 16 17 18 21 23 22 18 16 15 16 16 17 18 19 18 18 18 20 22 22 23 23 24 24 25 25 24 24 25 25 25 23 20 18
26 27 26 25 24 23 24 25 25 23 21 20 19 18 18 18 18 18 18 17 16 15 15 16 16 16 15 15 16 16 16 17 19 22 23 21 17 15 15 15 14 13 13 14 15 18 20 21 21 21 22 22 21 21 21 22 23 23 20 17 17 18
23 23 23 23 22 22 23 24 23 22 20 20 19 18 18 18 18 18 18 18 17 16 16 16 16 16 15 15 15 16 16 16 16 17 20 22 21 18 15 13 12 12 13 14 16 17 18 18 19 19 19 19 18 18 19 21 22 20 18 17 17 17
20 21 21 21 21 22 22 22 21 20 19 19 19 18 18 18 19 19 19 18 18 18 18 17 16 15 15 15 15 15 15 15 15 14 15 18 20 20 20 18 15 14 14 15 15 15 16 17 18 17 16 16 17 17 18 21 23 23 23 23 21 19
19 19 19 20 20 20 20 19 18 18 18 19 19 19 19 19 20 20 20 19 19 19 18 18 17 16 15 15 15 15 14 14 13 14 16 17 18 19 21 22 20 17 16 14 13 12 14 15 16 15 15 16 16 16 18 20 22 23 24 25 25 23
Wind_Direction
185 182 178 176 170 165 159 155 153 150 147 145 140 135 129 126 123 119 115 111 107 103 98 93 87 83 79 77 73 68 64 59 51 42 35 27 19 12 5 1 357 355 355 354 353 352 351 352 351 349 347 346 345 344 343 343 342 339 338 338 338 336
189 184 180 177 172 170 167 163 161 158 155 151 146 140 136 133 130 125 119 113 108 104 100 94 89 84 78 75 69 59 54 49 40 30 22 14 6 0 356 352 350 349 349 349 348 347 347 347 347 344 343 342 340 340 339 338 338 336 334 334 334 335
191 187 185 181 176 178 176 172 170 165 161 159 153 149 146 143 138 133 126 119 114 110 105 98 89 82 74 66 59 48 38 29 20 14 8 2 356 353 351 349 348 348 347 346 345 344 344 344 343 342 340 339 338 338 338 337 335 333 331 330 329 329
192 190 189 188 186 186 183 179 177 172 168 166 162 159 157 153 149 144 138 132 127 119 111 102 92 84 73 63 54 39 26 12 4 1 357 355 352 350 349 347 347 346 345 344 344 343 343 343 342 341 340 339 338 337 337 336 335 332 330 329 327 326
195 193 195 196 195 192 188 184 181 178 176 173 171 168 165 163 161 157 153 148 142 134 125 115 103 89 72 59 47 33 22 8 359 354 349 347 346 345 345 344 344 344 343 343 343 342 343 342 341 340 340 339 338 336 335 334 332 331 328 326 325 324
196 197 200 201 199 196 193 190 187 183 182 180 179 177 175 174 173 171 172 170 166 163 155 146 127 98 63 41 30 19 13 5 356 350 344 342 341 341 342 342 342 343 342 342 342 342 342 341 339 339 339 338 337 334 333 331 329 327 324 322 320 319
198 202 205 203 200 198 196 196 195 191 189 189 189 187 186 186 185 186 190 191 189 187 181 181 188 192 304 342 355 357 358 356 351 347 342 339 339 339 339 340 341 341 341 341 341 341 340 339 338 338 337 337 336 333 330 329 326 324 321 318 315 314
204 208 208 205 202 200 200 200 200 199 199 200 200 200 199 199 199 200 203 204 203 203 204 210 220 233 262 299 326 339 345 347 345 342 338 335 335 334 334 335 336 337 337 337 337 337 336 336 336 336 336 335 333 332 330 327 324 320 317 314 312 310
209 210 209 208 205 204 204 204 204 203 204 205 206 210 211 209 210 210 210 212 213 215 217 220 227 240 260 286 311 327 334 337 337 335 332 331 330 329 330 330 332 333 333 333 333 333 333 333 334 334 334 334 333 331 328 325 322 318 314 312 310 308
212 210 210 209 207 208 208 208 208 208 208 209 210 213 214 214 214 215 215 217 218 220 222 224 231 242 257 277 300 316 323 327 329 329 328 328 327 327 328 329 329 329 329 330 330 330 330 331 332 332 334 334 332 330 326 322 319 316 314 312 311 310
211 207 208 209 208 209 210 209 211 210 211 212 213 213 214 213 214 216 218 220 222 223 223 226 233 241 253 273 294 308 316 322 325 326 327 327 327 327 327 328 328 328 327 328 328 328 329 329 330 332 335 334 330 326 323 319 317 315 314 312 312 311
214 209 208 207 208 209 209 210 211 212 212 213 214 216 216 214 216 219 220 223 225 224 223 226 232 241 255 276 293 305 313 320 323 325 326 326 326 326 326 326 326 326 326 327 326 326 327 328 329 332 334 333 328 324 321 318 315 314 311 310 311 311
217 214 211 208 209 209 209 211 213 214 215 215 217 219 220 219 221 223 224 226 227 224 223 226 234 245 260 277 291 302 312 318 321 323 323 323 322 322 323 324 324 324 325 325 325 325 325 326 328 332 333 332 329 324 318 314 312 310 308 306 308 309
214 214 215 213 212 210 211 213 214 214 216 219 222 224 224 224 226 228 228 229 227 223 222 228 237 248 262 276 288 301 311 315 317 318 318 318 318 319 320 321 321 322 323 322 322 322 323 323 326 331 333 332 330 323 314 308 306 305 304 303 304 304
217 218 219 217 215 216 218 217 215 217 221 224 226 227 226 226 228 230 231 229 224 222 223 231 240 250 262 275 289 300 307 309 311 313 313 314 315 315 316 317 318 319 319 319 319 319 320 322 326 331 334 331 328 322 313 306 303 301 300 300 301 301
220 221 222 223 223 224 225 223 222 225 228 228 228 228 228 229 230 231 230 226 221 222 227 234 242 252 264 277 290 298 302 305 307 310 310 310 311 312 313 314 315 316 316 316 317 317 317 320 326 331 333 329 325 320 312 306 301 299 297 297 297 297
217 221 225 229 232 231 230 230 230 231 231 230 231 231 232 233 232 231 228 222 220 224 229 236 243 254 267 280 289 295 299 303 306 308 309 309 310 310 311 312 313 313 313 314 315 315 316 320 327 331 331 328 324 318 311 306 301 298 296 295 294 294
221 227 231 235 237 235 235 237 236 234 234 234 235 236 236 235 232 229 225 220 221 225 229 236 245 257 270 281 288 294 299 303 306 307 308 309 309 310 311 311 311 311 312 313 315 316 316 319 326 331 329 326 323 317 312 307 303 299 296 294 293 293
218 219 222 226 228 230 235 239 239 237 237 238 238 238 237 233 230 226 221 218 220 224 230 238 250 263 275 283 289 296 300 304 306 308 309 309 309 310 311 311 311 311 312 313 315 316 316 318 326 330 327 324 321 316 311 307 303 299 295 293 293 293
202 201 206 211 220 230 238 242 243 242 240 239 238 235 231 228 225 220 216 217 220 225 233 244 256 269 278 285 292 298 302 304 306 307 308 309 309 310 310 310 310 310 311 312 314 316 316 317 324 328 324 322 321 314 308 306 304 300 297 295 294 292
198 201 206 211 219 229 237 243 245 242 239 238 234 228 224 222 219 216 214 217 222 229 239 251 263 273 281 288 294 298 300 303 305 306 307 307 308 308 308 308 308 307 309 311 312 314 315 317 322 325 323 322 320 311 305 304 302 299 297 295 294 293
206 206 210 216 223 228 234 238 238 235 236 234 226 222 224 221 217 215 216 220 226 234 246 258 268 277 284 290 295 297 299 303 304 305 306 306 305 305 304 305 306 306 307 310 311 313 315 318 321 324 324 323 318 308 303 302 299 297 297 296 294 292
214 213 216 222 226 230 233 231 228 228 228 223 220 224 225 221 216 216 218 223 231 240 252 263 271 279 285 289 294 296 298 301 303 302 303 304 304 303 303 304 305 305 306 309 311 313 316 319 321 322 324 324 317 307 302 300 297 296 296 295 293 291
218 217 221 226 228 231 231 226 224 224 219 217 222 226 222 216 216 218 221 227 236 246 257 267 273 280 285 289 293 295 296 298 299 300 301 302 303 303 303 303 305 306 306 308 311 312 315 319 322 323 324 324 316 305 301 299 297 297 297 295 295 294
221 222 225 228 228 229 226 222 221 220 217 220 225 222 216 215 218 221 225 233 243 252 261 269 274 280 285 289 292 293 294 297 298 299 301 302 302 302 302 303 305 307 307 309 311 313 315 321 325 325 325 323 314 304 302 300 298 298 297 295 293 293
223 225 227 229 228 226 223 221 220 219 219 223 224 217 215 218 220 224 232 241 250 259 266 271 276 281 285 288 290 290 293 297 299 299 301 302 302 302 301 302 305 307 307 308 310 312 317 322 326 325 324 321 312 304 304 303 300 300 298 294 293 293
227 227 227 228 227 223 221 220 220 221 223 225 222 219 219 222 225 231 240 249 257 263 268 272 276 281 284 285 287 289 293 297 298 299 301 302 302 301 300 302 304 304 304 304 307 311 316 322 323 321 320 317 309 305 305 304 302 302 300 296 294 293
227 226 226 227 225 221 219 219 220 225 229 227 223 222 223 226 231 239 246 255 261 265 269 273 275 278 280 282 285 288 292 295 297 299 300 301 301 299 298 300 301 301 301 301 303 308 313 316 317 317 317 316 311 309 308 307 305 304 301 298 296 297
221 221 222 224 223 219 217 219 222 226 229 227 223 223 226 229 237 245 252 258 262 266 269 273 275 276 278 282 285 286 288 292 295 297 298 300 301 299 297 297 297 297 298 298 301 305 308 310 313 314 314 314 313 312 311 310 308 307 305 302 300 299
221 221 222 224 222 218 216 218 221 223 225 224 223 224 228 234 241 248 254 258 262 265 268 271 275 279 282 284 284 285 288 291 293 294 296 299 299 297 296 295 293 292 293 295 298 302 304 305 308 310 311 312 312 312 312 311 309 308 306 304 302 303
225 224 224 225 222 217 216 217 219 221 222 223 223 225 230 237 244 248 253 257 260 263 266 271 276 281 284 286 286 286 288 290 294 296 297 299 299 298 296 293 290 291 294 295 296 298 300 302 305 308 309 310 311 310 310 310 309 308 306 305 308 311
229 227 226 225 221 216 215 215 216 218 220 221 224 228 232 237 243 247 250 254 258 261 265 270 275 278 281 283 287 289 289 289 292 295 295 296 297 293 286 283 283 286 290 292 292 293 295 298 303 307 309 310 310 310 310 309 309 309 310 313 317 318
228 226 224 221 217 214 213 213 214 215 218 221 225 231 235 238 241 246 249 252 255 259 264 268 272 274 277 280 285 289 293 295 295 292 289 291 294 291 282 277 279 284 287 288 290 293 296 298 303 307 310 312 312 313 314 313 314 315 317 320 323 322
223 222 220 217 214 212 210 210 212 213 216 221 227 232 236 239 241 244 248 250 252 255 260 264 268 271 274 278 281 286 292 298 301 301 299 296 295 297 297 292 287 287 289 290 292 297 301 304 307 310 312 314 316 318 320 320 320 322 325 327 329 327
224 221 218 214 211 209 207 207 209 212 216 222 228 233 237 240 242 244 246 248 249 251 254 259 264 268 271 276 280 283 288 293 299 304 307 307 304 303 304 303 297 293 294 297 301 304 306 308 311 313 316 320 323 326 328 326 323 326 333 338 339 335
222 216 213 211 209 205 204 204 208 213 218 224 230 234 237 240 242 243 245 246 248 250 252 256 260 264 269 272 275 279 284 288 292 298 304 309 312 312 311 308 304 303 306 309 308 308 310 313 315 318 322 327 331 334 334 331 331 338 349 352 346 338
214 210 208 207 203 201 203 206 210 215 221 226 231 234 236 238 240 241 243 245 247 249 252 255 258 262 265 268 270 273 278 283 289 291 293 298 304 306 307 307 307 310 315 318 316 314 315 319 321 323 328 334 337 338 338 341 345 349 350 348 344 338
205 202 201 199 199 202 205 208 213 219 224 228 232 234 235 237 239 241 242 243 245 248 252 255 257 258 261 263 267 271 274 278 283 285 287 290 293 295 298 302 308 313 314 318 327 330 328 327 327 327 331 337 340 340 344 349 349 344 340 340 340 338